This demonstration page uses our WeatherBlox Daily Observations layout. Learn more.

Left ArrowRight Arrow

34.74481, -87.66753

Hourly Observations for June 15, 2020

Temp ( °F °C ) Dew Point ( °F °C ) Humidity (%) Winds ( mph kmh ) Pressure ( in mb ) Visibility ( mi km ) Precip ( " mm )
12:53 am 00:53 Clear 66 18.9 61 16.1 84 84 Calm 30.16 1022 10 16 0.00 0.00
1:53 am 01:53 Clear 66 18.9 62 16.7 87 87 ENE 3 6 30.15 1021 10 16 0.00 0.00
2:53 am 02:53 Clear 64 17.8 60 15.6 87 87 NE 3 6 30.15 1021 10 16 0.00 0.00
3:53 am 03:53 Clear 65 18.3 60 15.6 84 84 Calm 30.15 1021 10 16 0.00 0.00
4:53 am 04:53 Clear 64 17.8 60 15.6 87 87 Calm 30.16 1021 10 16 0.00 0.00
5:53 am 05:53 Mostly Cloudy 65 18.3 61 16.1 87 87 Calm 30.17 1022 10 16 0.00 0.00
6:53 am 06:53 Mostly Sunny 68 20 63 17.2 84 84 Calm 30.19 1023 10 16 0.00 0.00
7:53 am 07:53 Mostly Sunny 74 23.3 62 16.7 67 67 VRB 5 7 30.21 1023 10 16 0.00 0.00
11:53 am 11:53 Sunny 81 27.2 59 15 47 47 NNE 10 17 30.18 1022 10 16 0.00 0.00
12:53 pm 12:53 Sunny 83 28.3 56 13.3 40 40 N 8 13 30.17 1022 10 16 0.00 0.00
1:53 pm 13:53 Sunny 83 28.3 52 11.1 34 34 N 9 15 30.15 1021 10 16 0.00 0.00
2:53 pm 14:53 Sunny 83 28.3 52 11.1 34 34 NNE 8 13 30.14 1021 10 16 0.00 0.00
3:53 pm 15:53 Sunny 83 28.3 49 9.4 31 31 N 10 17 30.14 1021 10 16 0.00 0.00
4:53 pm 16:53 Sunny 82 27.8 50 10 33 33 NNE 8 13 30.14 1021 10 16 0.00 0.00
5:53 pm 17:53 Sunny 81 27.2 52 11.1 37 37 NNE 9 15 30.13 1020 10 16 0.00 0.00
6:53 pm 18:53 Partly Cloudy 80 26.7 54 12.2 41 41 NNE 8 13 30.14 1021 10 16 0.00 0.00
7:53 pm 19:53 Sunny 76 24.4 53 11.7 45 45 NE 5 7 30.16 1021 10 16 0.00 0.00
8:53 pm 20:53 Clear 73 22.8 55 12.8 53 53 N 3 6 30.16 1021 10 16 0.00 0.00
9:53 pm 21:53 Clear 70 21.1 57 13.9 64 64 NNE 5 7 30.16 1022 10 16 0.00 0.00
10:53 pm 22:53 Clear 70 21.1 56 13.3 61 61 NNE 6 9 30.16 1022 10 16 0.00 0.00
11:53 pm 23:53 Clear 67 19.4 57 13.9 71 71 N 3 6 30.17 1022 10 16 0.00 0.00

Powered by AerisWeather